Hourly Data Report for September 11, 2017

All times are specified in Local Standard Time (LST). Add 1 hour to adjust for Daylight Saving Time where and when it is observed.

PENTICTON A
BRITISH COLUMBIA

49°27'45.000" N
119°36'08.000" W
344.40 m
1126146
71889
YYF

Download Data

Hourly Data (September 2017)
Hourly Data Report for September 11, 2017
Temp Definition
°C
Dew Point Temp Definition
°C
Rel Hum Definition
%
Wind Dir Definition
10's deg

Wind Spd Definition
km/h
Visibility Definition
km
Stn Press Definition
kPa
Hmdx Definition


Wind Chill Definition


Weather Definition


TIME
00:00 Legend Double Dagger 10.4 4.2 65 36 2 24.1 98.13     LegendNANA
01:00 Legend Double Dagger 9.3 3.8 68 36 2 24.1 98.14     Clear
02:00 Legend Double Dagger 9.2 2.5 63 34 4 24.1 98.14     LegendNANA
03:00 Legend Double Dagger 8.6 2.7 66 36 2 24.1 98.18     LegendNANA
04:00 Legend Double Dagger 8.3 4.7 78 1 3 24.1 98.14     Clear
05:00 Legend Double Dagger 9.2 4.3 71 36 2 24.1 98.13     LegendNANA
06:00 Legend Double Dagger 7.7 3.1 72 34 4 24.1 98.12     LegendNANA
07:00 Legend Double Dagger 14.7 5.2 53 1 8 24.1 98.12     Mostly Cloudy
08:00 Legend Double Dagger 16.7 5.6 48 6 3 24.1 98.06     LegendNANA
09:00 Legend Double Dagger 19.7 5.7 40 16 22 24.1 97.97     LegendNANA
10:00 Legend Double Dagger 21.1 5.9 37 16 28 24.1 97.88     Mostly Cloudy
11:00 Legend Double Dagger 22.9 6.6 35 16 33 24.1 97.78     LegendNANA
12:00 Legend Double Dagger 25.0 7.1 31 17 31 24.1 97.67 25   LegendNANA
13:00 Legend Double Dagger 26.3 6.6 28 17 35 24.1 97.55 26   Mostly Cloudy
14:00 Legend Double Dagger 26.8 6.8 28 17 31 24.1 97.46 27   LegendNANA
15:00 Legend Double Dagger 27.1 7.0 27 17 31 16.1 97.39 27   LegendNANA
16:00 Legend Double Dagger 26.9 7.6 29 17 29 16.1 97.33 27   Mostly Cloudy
17:00 Legend Double Dagger 25.9 8.9 33 18 23 19.3 97.31 27   LegendNANA
18:00 Legend Double Dagger 25.6 7.2 30 17 22 19.3 97.30 26   LegendNANA
19:00 Legend Double Dagger 23.4 7.8 36 36 3 19.3 97.33     Mostly Cloudy
20:00 Legend Double Dagger 21.9 7.0 38 21 12 19.3 97.33     LegendNANA
21:00 Legend Double Dagger 18.4 6.3 45 36 7 19.3 97.36     LegendNANA
22:00 Legend Double Dagger 17.6 5.7 45 32 5 19.3 97.41     Mostly Cloudy
23:00 Legend Double Dagger 17.2 6.1 48 35 16 24.1 97.40     LegendNANA

Notes on Data Quality.

Legend

  • E = Estimated
  • M = Missing
  • NA = Not Available
  • ‡ = Partner data that is not subject to review by the National Climate Archives
Date modified: